Wetbulb
40.67 36.42 35.27 38.18 40.05 40.76 40.32 39.23 38.46 41.44 44.63 43.27 43.35 42.93 43.84 46.12 46.53 46.61 46.86 47.80 48.67 50.53 53.20 58.86 65.58 67.20 67.33 67.23 66.80 67.35 66.76 66.86 66.49 64.92 64.09 63.41 62.56 63.71 64.60 65.03 65.48 65.30 66.20 65.68
36.17 34.07 37.39 37.60 36.92 35.59 35.93 36.00 37.05 41.66 43.94 43.37 42.67 41.41 43.85 45.36 46.11 46.54 46.76 47.79 48.94 50.05 51.38 56.16 61.88 66.31 66.57 66.38 66.71 65.60 65.59 66.40 66.03 65.30 64.90 64.20 63.14 63.66 64.38 64.95 65.01 64.92 65.11 65.89
32.09 34.04 36.95 35.09 33.55 32.69 33.58 33.81 35.86 37.15 41.79 43.34 41.37 38.94 41.29 44.63 46.51 47.27 47.92 48.90 49.26 49.56 50.49 53.07 57.36 64.75 66.08 65.80 66.01 65.27 65.84 66.10 65.60 65.54 64.23 64.06 64.04 63.46 62.77 63.67 63.84 64.34 64.23 65.46
34.61 37.14 34.91 33.59 32.19 33.23 29.04 34.61 34.09 33.77 34.64 31.75 41.39 32.06 38.75 41.97 43.63 45.65 46.67 47.81 48.93 49.41 51.18 52.68 53.84 56.98 65.03 65.32 66.82 66.16 66.14 66.34 65.92 63.99 62.74 62.80 61.78 60.36 61.82 63.19 64.16 64.53 64.61 64.51
33.22 34.73 34.70 33.21 33.88 35.36 31.24 34.95 33.02 32.56 31.05 32.64 34.92 33.85 38.09 42.76 41.32 43.96 46.22 47.96 49.13 50.99 51.69 52.55 54.62 55.01 61.02 66.47 66.51 66.72 66.23 65.97 65.36 63.90 63.48 62.86 62.28 62.55 62.96 62.53 63.31 63.65 64.35 64.42
36.45 40.21 37.89 36.34 36.78 36.14 36.84 33.76 32.73 31.90 30.45 23.91 31.42 33.00 35.31 39.70 42.78 45.19 46.48 48.01 49.02 50.00 51.45 52.42 53.82 56.94 57.54 65.96 66.44 66.47 65.54 65.01 64.11 63.43 63.44 62.89 61.48 61.04 60.63 61.56 62.81 63.05 63.20 63.95
34.61 35.44 38.01 38.51 33.38 36.57 34.38 29.87 20.94 18.79 20.76 21.09 33.24 31.41 35.36 42.91 44.96 46.82 47.50 48.59 50.08 52.47 52.87 53.89 53.91 53.89 57.72 60.01 65.41 65.89 65.47 63.81 63.73 63.08 63.18 63.33 63.31 61.68 60.94 61.32 61.36 62.81 63.33 63.09
26.34 24.64 33.53 37.39 34.19 30.94 31.19 29.52 21.65 14.15 16.99 22.64 32.07 28.74 35.18 42.31 44.35 47.68 48.41 49.11 49.73 49.35 50.44 50.96 53.26 54.55 55.84 57.60 60.54 64.68 64.71 64.35 63.42 63.18 62.93 63.71 63.71 63.32 62.30 61.58 61.89 61.92 63.06 64.42
26.03 26.72 36.72 36.81 37.27 35.29 30.30 26.89 32.75 24.94 26.61 20.67 27.69 33.84 37.91 40.09 39.81 41.07 41.66 45.02 45.71 46.95 48.06 47.96 50.16 52.29 54.58 55.59 56.74 58.15 62.99 64.26 63.60 63.33 63.19 63.53 63.75 63.35 62.53 62.11 62.10 62.41 62.84 64.64
32.51 25.33 33.19 33.89 35.91 35.56 32.12 34.76 24.93 24.70 15.27 15.46 25.93 26.48 26.17 33.78 34.98 37.36 39.27 41.64 43.51 44.89 45.63 47.39 48.41 49.01 51.26 53.00 54.70 56.27 57.94 61.33 63.93 63.09 63.27 63.20 63.33 63.61 63.53 63.07 61.91 61.62 62.17 63.68
34.92 30.69 28.41 32.16 28.85 27.33 30.12 28.38 29.87 29.93 26.58 19.73 20.22 21.65 32.43 31.44 33.56 33.96 37.68 39.76 40.76 41.80 42.81 44.32 46.47 47.81 49.08 50.91 52.34 54.24 56.35 57.62 59.28 63.60 63.51 63.00 62.98 63.48 63.57 62.90 62.85 61.95 62.10 62.36
36.18 32.34 25.73 25.62 32.55 33.95 32.56 30.55 31.02 23.69 22.24 26.28 24.62 20.89 32.04 32.83 33.90 34.79 35.25 36.96 38.40 39.99 40.96 42.43 43.50 44.65 45.57 47.18 48.51 50.15 52.67 54.40 58.39 61.03 63.58 63.51 63.27 63.18 63.11 63.21 62.92 62.59 62.00 62.67
35.12 29.56 22.91 23.59 27.43 30.39 26.32 28.85 30.65 31.20 29.04 21.74 19.41 21.11 31.85 32.34 32.52 33.55 33.11 34.71 35.89 36.87 38.27 39.55 40.10 40.39 41.31 42.80 44.27 46.01 48.81 51.05 54.13 57.55 61.08 63.08 63.09 62.55 62.31 63.00 63.28 63.06 63.00 62.62
36.60 28.45 24.67 18.57 21.21 25.44 22.09 24.53 26.50 26.39 20.53 21.81 20.64 21.54 25.37 28.32 29.63 32.21 31.91 32.78 33.30 34.17 35.25 36.01 36.45 37.29 38.72 40.13 41.22 43.36 45.33 48.27 51.02 53.78 56.38 60.44 63.14 63.00 62.89 62.99 63.13 62.55 62.77 63.68
34.87 24.25 25.47 26.47 26.53 25.44 24.17 22.59 23.37 21.53 22.54 19.31 21.09 21.43 24.48 28.11 29.75 30.23 30.90 30.78 30.58 31.10 32.10 32.67 33.38 34.99 36.48 37.39 39.27 40.81 42.63 45.22 47.86 50.62 53.67 58.72 62.81 63.98 63.73 63.48 63.44 63.33 62.98 62.79
35.47 27.57 28.34 23.80 27.86 25.83 21.94 23.60 23.06 22.55 22.69 22.64 22.92 21.48 28.38 29.97 31.68 29.42 28.68 28.92 28.53 29.17 30.16 31.06 32.22 33.23 34.13 35.04 37.56 38.47 39.92 42.45 45.39 47.82 51.79 57.94 60.46 62.98 63.72 63.74 63.56 63.24 63.21 63.50
31.62 30.57 27.41 21.40 27.82 26.69 18.55 22.22 24.04 23.36 24.99 25.09 19.47 24.03 28.03 27.39 29.36 29.09 28.81 28.74 29.01 29.16 29.68 30.36 31.31 32.27 33.26 35.39 36.29 36.55 38.12 41.84 45.03 49.38 53.87 58.13 61.08 62.01 62.10 63.38 63.30 62.89 62.76 63.79
30.79 29.38 29.24 24.71 26.95 13.29 22.35 28.91 28.36 25.85 25.89 27.45 27.36 27.46 28.68 28.94 30.84 32.13 31.12 29.58 29.56 30.23 30.40 30.91 31.94 32.54 34.26 34.88 35.38 36.68 39.43 41.78 43.78 47.28 51.45 54.85 56.94 60.72 61.19 62.46 62.80 62.66 62.81 62.87
34.91 31.17 25.86 22.01 18.98 21.55 22.81 25.87 25.76 24.02 23.55 29.51 28.68 28.79 30.11 31.45 30.86 29.67 31.65 31.50 30.49 30.95 31.80 31.79 33.02 33.23 34.20 33.89 34.77 36.48 38.54 39.35 41.06 43.05 45.56 48.90 52.08 53.61 59.11 60.57 61.72 62.68 62.02 62.01
35.61 35.06 28.50 23.46 15.79 11.37 22.37 29.09 32.87 31.55 19.88 30.62 30.96 29.05 29.66 30.18 22.33 25.78 31.26 31.78 31.62 31.79 31.82 31.55 32.28 32.99 33.80 33.48 34.71 35.94 36.41 37.55 38.52 41.40 44.50 47.67 50.36 51.67 52.91 58.02 61.02 61.65 61.72 60.84
28.12 29.41 26.21 23.94 19.47 20.70 29.51 32.04 33.93 18.10 20.46 31.92 32.69 31.99 31.57 27.80 28.89 31.39 32.18 31.74 32.44 32.01 32.08 32.16 32.40 32.08 32.48 33.53 34.41 34.45 35.48 35.21 39.39 41.58 44.10 46.51 47.29 49.02 51.29 53.53 58.49 60.61 60.23 59.34
24.15 24.28 23.28 25.13 20.14 15.24 32.48 32.19 25.18 30.90 34.13 34.39 33.61 33.88 33.09 33.64 32.58 32.58 31.93 31.46 31.89 31.28 31.97 32.48 31.52 31.95 32.22 32.59 33.45 33.80 33.69 36.02 39.54 40.92 41.73 43.30 45.72 45.38 46.88 52.60 53.81 56.83 57.65 57.19
24.48 28.01 23.94 25.29 24.22 32.50 34.62 32.35 36.22 37.41 35.54 35.34 34.57 35.19 35.29 34.59 34.12 34.69 33.18 33.32 32.73 32.80 32.60 33.77 31.82 31.72 32.96 32.22 32.58 32.54 34.29 35.64 37.75 37.95 38.70 41.11 42.04 43.89 42.87 42.25 40.67 40.09 40.84 48.61
32.78 35.70 29.26 29.21 32.23 34.64 35.94 37.17 38.14 38.03 37.01 37.33 37.24 36.74 36.24 34.42 35.23 34.53 33.61 33.04 33.13 33.22 32.72 34.13 32.05 31.41 31.84 32.98 32.85 33.61 35.77 36.05 36.22 35.95 36.21 38.25 38.55 39.75 41.38 41.10 39.57 36.95 35.90 37.55
34.50 35.10 32.01 30.89 33.74 34.96 36.21 37.13 37.86 38.14 38.65 38.21 38.50 37.98 36.77 35.89 35.19 35.51 34.01 33.38 33.62 33.78 33.95 34.02 32.22 31.82 31.96 33.40 33.54 35.52 36.70 36.26 34.85 35.11 35.43 35.66 36.81 37.30 38.13 39.20 38.40 37.73 36.28 34.49
35.88 33.36 30.59 28.72 35.07 35.14 35.28 38.08 39.01 38.09 37.77 38.35 37.93 37.41 38.06 37.11 35.93 36.16 35.33 34.61 33.94 34.30 34.77 33.79 33.73 32.91 33.20 33.52 33.02 35.09 36.69 36.19 35.60 34.47 34.22 34.11 34.93 35.23 35.66 35.79 36.41 35.62 35.34 34.62
MSLP
1012.43 1012.30 1011.77 1011.33 1010.97 1010.05 1009.50 1008.44 1006.96 1005.44 1004.48 1003.98 1003.01 1002.86 1003.68 1003.86 1004.25 1004.35 1004.74 1004.93 1005.64 1006.56 1006.94 1007.89 1008.84 1010.31 1011.85 1013.07 1014.12 1014.79 1015.60 1016.41 1017.08 1017.95 1018.74 1019.30 1019.77 1019.92 1020.23 1020.72 1021.44 1022.17 1022.70 1023.15
1013.71 1012.90 1013.16 1013.29 1012.85 1012.12 1011.36 1009.91 1008.14 1006.66 1005.47 1004.74 1003.22 1003.19 1003.40 1003.57 1003.73 1004.36 1004.59 1004.63 1005.12 1006.23 1007.13 1007.51 1008.68 1010.29 1011.62 1012.67 1013.73 1014.95 1015.54 1016.19 1016.72 1017.65 1018.54 1019.20 1019.43 1019.41 1019.87 1020.40 1021.14 1021.69 1022.47 1023.02
1015.15 1015.15 1014.89 1014.67 1014.45 1013.83 1012.78 1011.83 1010.39 1008.95 1007.36 1005.67 1004.97 1004.41 1004.15 1003.95 1003.66 1003.81 1004.34 1004.76 1005.24 1005.87 1006.85 1007.41 1008.52 1010.05 1011.31 1012.58 1013.60 1014.49 1015.43 1015.95 1016.51 1017.16 1018.34 1019.10 1019.51 1019.92 1019.22 1019.92 1020.62 1020.77 1021.55 1022.54
1015.73 1015.86 1015.74 1015.53 1015.28 1015.09 1014.35 1013.90 1012.83 1011.45 1010.11 1008.00 1006.30 1005.19 1005.21 1005.01 1004.09 1003.48 1003.87 1004.50 1004.88 1005.47 1006.38 1007.24 1008.17 1009.42 1010.96 1011.96 1012.96 1014.03 1014.94 1015.66 1016.41 1017.05 1017.87 1018.24 1018.65 1019.26 1019.21 1018.93 1020.08 1020.54 1021.08 1021.81
1016.12 1015.64 1015.25 1015.23 1015.21 1015.57 1015.45 1015.46 1014.82 1013.83 1012.21 1010.62 1008.20 1006.93 1005.13 1004.99 1004.90 1004.06 1003.71 1004.38 1005.14 1005.76 1006.42 1007.27 1007.98 1008.79 1009.55 1011.11 1012.30 1013.41 1014.36 1015.27 1016.10 1016.75 1017.29 1018.00 1018.43 1018.67 1018.60 1018.81 1019.61 1019.60 1019.87 1020.96
1016.38 1015.77 1015.68 1016.06 1016.18 1016.48 1016.35 1016.29 1015.85 1015.20 1014.23 1011.98 1009.91 1008.51 1006.74 1005.32 1004.93 1004.25 1004.10 1004.33 1005.47 1006.13 1006.70 1007.39 1008.12 1008.74 1009.25 1010.35 1011.67 1012.82 1013.91 1014.99 1015.80 1016.57 1016.99 1017.40 1017.92 1018.33 1018.46 1018.55 1019.20 1019.36 1020.02 1020.19
1016.69 1016.22 1016.87 1017.27 1017.13 1017.05 1017.64 1017.54 1016.60 1015.75 1014.67 1012.89 1011.81 1010.42 1008.87 1007.25 1007.00 1005.70 1004.51 1004.84 1006.08 1007.57 1008.12 1008.56 1008.98 1009.38 1009.80 1010.23 1011.20 1012.18 1013.27 1014.45 1015.30 1015.95 1016.57 1017.02 1017.33 1017.87 1018.24 1018.30 1018.42 1018.72 1019.27 1019.75
1018.37 1017.75 1017.82 1017.85 1018.33 1018.29 1017.99 1018.10 1017.64 1016.25 1015.33 1014.22 1012.68 1011.12 1010.90 1011.49 1011.18 1009.48 1008.77 1008.76 1009.15 1010.10 1010.67 1010.88 1011.09 1011.33 1011.37 1011.32 1011.63 1012.05 1012.92 1013.66 1014.76 1015.37 1015.89 1016.38 1016.70 1017.22 1017.68 1018.01 1017.95 1018.07 1018.39 1018.87
1020.26 1019.13 1019.10 1019.28 1019.21 1019.01 1018.27 1017.74 1017.62 1017.19 1016.36 1016.69 1013.92 1012.97 1013.67 1014.77 1014.62 1014.39 1013.83 1012.77 1012.31 1012.41 1012.69 1013.13 1013.22 1013.26 1013.03 1012.91 1012.71 1013.15 1013.12 1013.35 1014.08 1014.73 1015.36 1015.81 1016.23 1016.59 1016.91 1017.31 1017.68 1017.80 1017.98 1018.26
1021.62 1020.79 1020.72 1020.51 1020.15 1019.69 1019.55 1018.93 1018.24 1018.60 1017.81 1016.87 1015.23 1016.39 1018.41 1018.75 1018.35 1017.44 1016.43 1015.18 1014.62 1014.63 1014.89 1014.60 1014.51 1014.69 1014.82 1014.62 1014.25 1013.82 1013.75 1013.45 1013.70 1014.33 1014.80 1015.26 1015.72 1016.16 1016.37 1016.77 1017.04 1017.27 1017.55 1017.68
1021.88 1021.62 1021.65 1020.82 1021.66 1021.11 1019.39 1019.24 1018.78 1018.25 1018.11 1018.06 1017.79 1020.74 1021.91 1021.41 1020.85 1020.07 1018.35 1017.26 1017.31 1017.12 1017.09 1016.98 1016.83 1016.86 1016.76 1016.35 1015.67 1014.82 1014.18 1013.68 1013.54 1013.81 1014.19 1014.66 1015.01 1015.47 1015.99 1016.10 1016.33 1016.59 1016.95 1017.33
1022.04 1021.95 1022.06 1022.58 1022.55 1022.36 1021.02 1020.15 1019.25 1019.51 1019.76 1019.75 1020.10 1023.28 1023.84 1023.19 1022.63 1021.70 1020.43 1019.90 1019.18 1018.73 1018.58 1018.44 1018.63 1018.70 1018.47 1018.06 1017.47 1016.45 1015.16 1014.34 1013.50 1013.13 1013.41 1013.81 1014.21 1014.41 1014.98 1015.27 1015.42 1015.88 1016.20 1016.63
1022.86 1022.39 1022.39 1022.49 1022.75 1023.46 1023.41 1022.74 1021.26 1021.07 1021.49 1021.90 1022.28 1024.29 1024.59 1024.59 1023.85 1023.11 1022.40 1021.62 1021.11 1020.90 1020.43 1020.27 1020.18 1020.03 1019.72 1019.25 1018.72 1017.94 1016.76 1015.40 1014.41 1013.50 1012.77 1012.87 1013.18 1013.47 1013.72 1014.35 1014.66 1014.94 1015.36 1015.76
1023.97 1024.62 1024.76 1025.79 1026.82 1026.45 1025.65 1024.70 1024.58 1023.90 1024.54 1024.81 1025.59 1025.55 1025.31 1025.34 1025.06 1024.79 1024.30 1023.94 1023.43 1022.70 1022.30 1021.99 1021.59 1021.08 1020.35 1019.81 1019.18 1018.42 1017.46 1016.53 1015.28 1014.24 1012.98 1011.88 1012.00 1012.39 1012.64 1013.14 1013.64 1014.06 1014.35 1014.59
1024.77 1025.97 1025.95 1026.64 1026.83 1026.92 1026.95 1026.18 1026.35 1026.60 1027.49 1027.28 1027.81 1027.44 1027.79 1027.11 1026.10 1025.18 1024.50 1024.74 1024.62 1024.23 1023.84 1023.29 1022.68 1021.94 1021.02 1020.32 1019.54 1018.70 1017.87 1016.89 1015.81 1014.36 1012.99 1011.20 1010.56 1011.15 1011.51 1011.84 1012.35 1013.02 1013.38 1013.72
1025.30 1025.99 1026.37 1026.73 1026.55 1026.80 1028.53 1029.38 1029.60 1029.58 1029.45 1029.15 1029.00 1028.92 1029.33 1028.40 1027.75 1027.29 1027.08 1026.65 1026.15 1025.53 1024.99 1024.32 1023.40 1022.49 1021.67 1020.91 1019.83 1018.99 1018.07 1017.06 1015.94 1014.34 1012.75 1011.33 1009.81 1009.74 1010.33 1010.83 1011.39 1011.91 1012.29 1012.56
1025.11 1025.42 1025.91 1026.17 1026.06 1026.58 1028.56 1030.35 1030.58 1030.95 1030.96 1030.66 1030.10 1030.66 1029.82 1028.75 1028.28 1028.30 1028.29 1027.92 1027.28 1026.48 1025.49 1024.49 1023.57 1022.80 1022.05 1020.98 1020.07 1019.00 1017.98 1016.73 1015.32 1013.79 1012.25 1010.69 1009.16 1009.07 1009.40 1009.87 1010.45 1010.81 1011.20 1011.68
1025.08 1025.22 1025.32 1025.83 1026.37 1028.27 1031.00 1031.25 1030.87 1030.79 1030.75 1030.41 1030.15 1030.07 1029.91 1029.49 1029.15 1028.91 1028.88 1028.20 1027.32 1026.49 1025.61 1024.82 1024.10 1023.12 1022.07 1021.00 1019.99 1018.85 1017.54 1016.27 1015.02 1013.62 1012.22 1010.92 1009.36 1008.29 1008.69 1009.02 1009.52 1010.01 1010.43 1010.73
1024.77 1025.00 1025.64 1026.38 1027.69 1029.95 1030.55 1031.05 1030.89 1030.62 1030.96 1030.65 1030.57 1030.43 1030.16 1029.77 1029.18 1028.77 1028.76 1028.33 1027.65 1026.98 1026.16 1025.34 1024.24 1023.12 1022.02 1020.95 1019.76 1018.51 1017.31 1016.23 1015.12 1013.93 1012.85 1011.80 1010.62 1009.40 1008.68 1008.35 1008.85 1009.44 1009.92 1010.19
1024.59 1024.77 1025.51 1026.71 1028.29 1030.14 1031.40 1030.75 1029.32 1029.46 1030.03 1030.23 1030.33 1030.21 1029.88 1029.59 1028.96 1029.05 1028.77 1028.73 1028.01 1027.09 1026.20 1025.12 1024.16 1023.13 1022.11 1020.84 1019.67 1018.48 1017.38 1016.34 1015.18 1014.01 1012.67 1011.97 1010.91 1010.22 1009.48 1009.05 1008.58 1008.81 1009.29 1009.51
1025.95 1025.95 1026.14 1027.23 1028.81 1030.79 1031.23 1030.50 1029.12 1029.54 1031.18 1030.08 1029.47 1029.27 1029.15 1029.38 1029.79 1029.39 1029.06 1028.37 1028.02 1027.28 1026.37 1025.43 1024.35 1022.58 1022.28 1021.24 1020.06 1018.77 1017.64 1016.53 1015.35 1014.14 1013.19 1012.16 1011.55 1010.72 1010.09 1009.69 1009.28 1008.87 1009.14 1009.38
1027.67 1027.68 1027.99 1028.13 1029.14 1030.75 1030.84 1030.22 1030.24 1030.62 1029.97 1029.27 1028.96 1028.59 1028.42 1028.43 1028.22 1028.50 1028.28 1027.58 1027.24 1026.50 1025.93 1025.43 1024.16 1023.29 1022.63 1021.60 1020.20 1018.95 1017.96 1017.20 1015.76 1014.75 1013.77 1013.16 1012.22 1011.49 1010.95 1010.26 1009.97 1009.65 1009.56 1009.60
1027.98 1028.73 1029.11 1029.65 1030.52 1030.63 1030.41 1030.26 1029.87 1029.23 1028.93 1028.52 1028.40 1027.93 1027.74 1027.59 1027.30 1027.29 1027.31 1026.84 1026.10 1025.69 1025.26 1024.82 1024.72 1023.87 1022.83 1021.96 1020.84 1019.98 1019.16 1017.86 1016.74 1015.65 1014.89 1014.10 1013.46 1012.52 1012.26 1011.81 1011.74 1011.66 1011.20 1010.94
1027.47 1027.63 1028.55 1029.33 1029.54 1029.48 1028.87 1028.72 1028.49 1028.22 1028.09 1027.90 1027.72 1027.46 1027.34 1027.07 1026.79 1026.44 1026.23 1026.17 1025.81 1025.34 1024.95 1024.44 1024.16 1023.54 1022.77 1022.01 1021.23 1020.43 1019.61 1018.80 1017.45 1016.50 1016.04 1015.44 1014.34 1013.82 1013.82 1013.35 1013.71 1013.21 1013.54 1012.88
1026.75 1026.93 1027.42 1028.02 1028.21 1028.79 1028.12 1028.10 1027.96 1027.59 1027.54 1027.42 1027.25 1027.08 1026.93 1026.85 1026.56 1026.18 1025.96 1025.94 1025.62 1025.27 1024.93 1024.63 1024.33 1023.89 1023.29 1022.73 1021.92 1020.73 1020.15 1019.37 1018.26 1017.87 1017.29 1016.89 1016.13 1015.58 1015.24 1015.19 1015.76 1015.11 1015.42 1015.32
1026.90 1027.00 1027.22 1027.74 1027.69 1027.63 1027.72 1027.65 1027.42 1027.15 1027.17 1027.13 1026.93 1026.93 1026.81 1026.74 1026.58 1026.32 1025.94 1025.96 1025.62 1025.07 1024.81 1024.54 1024.21 1023.94 1023.45 1023.06 1022.43 1021.47 1020.78 1019.88 1019.49 1019.24 1018.81 1018.49 1017.77 1017.41 1016.94 1016.69 1016.36 1016.37 1016.37 1015.94
Wind_Speed
14 9 12 19 19 23 22 25 28 26 20 24 23 22 21 17 12 11 15 17 15 12 13 11 14 21 19 15 11 14 15 17 12 9 9 9 8 5 3 8 10 8 6 11
11 11 15 19 19 21 21 23 26 24 25 21 18 22 16 19 18 15 14 13 16 16 13 13 13 19 18 18 16 13 12 14 13 10 8 8 10 7 4 9 11 11 7 9
10 10 14 17 17 19 19 20 21 24 22 24 15 15 16 17 21 18 16 14 12 14 17 12 11 17 17 17 17 16 17 16 13 12 9 8 7 6 5 7 11 13 14 8
5 8 9 11 15 15 18 21 25 24 21 17 20 15 19 19 20 16 18 15 12 16 13 10 16 13 17 15 18 17 16 17 14 15 14 17 12 11 8 8 8 11 14 12
11 13 15 13 12 11 16 16 21 24 23 22 27 15 15 23 21 23 15 15 11 6 7 11 7 15 14 16 14 14 14 16 14 15 15 12 12 8 6 7 13 13 15 15
17 14 6 12 11 13 14 16 17 19 17 16 22 19 16 15 19 24 27 21 17 14 10 7 10 4 6 19 18 16 15 14 15 16 16 17 16 12 7 7 9 9 9 10
15 10 10 9 13 14 3 10 10 9 13 12 18 17 13 13 15 19 15 10 14 19 13 10 11 3 2 2 19 18 18 15 17 18 17 17 17 15 14 9 9 11 10 10
10 6 11 10 10 12 17 11 7 9 12 15 22 17 9 17 24 17 18 20 21 17 16 16 16 13 14 13 8 16 18 17 16 17 18 16 17 11 10 11 9 9 9 11
7 7 16 14 17 6 6 9 11 15 10 4 9 17 16 21 25 23 26 19 18 17 14 15 15 15 12 14 14 12 10 14 16 17 16 16 15 15 13 14 12 8 10 9
5 8 11 6 7 4 11 6 4 3 2 7 13 5 9 13 14 14 11 13 16 17 15 14 15 16 16 15 14 14 12 5 14 14 15 14 13 15 13 13 15 15 9 7
6 4 10 7 10 11 0 6 6 7 1 5 4 5 11 16 13 15 16 17 17 16 16 14 12 14 15 15 15 15 14 11 6 16 15 16 15 15 15 13 15 15 12 13
11 5 5 10 13 18 22 18 7 3 4 4 5 7 14 18 16 16 16 19 19 19 17 15 14 13 13 14 14 16 17 15 13 7 16 17 17 17 16 16 15 14 14 12
12 8 6 3 4 17 25 25 22 11 5 15 7 6 17 18 18 15 17 19 19 20 19 17 16 15 14 14 14 15 16 17 16 15 11 17 17 17 18 17 15 16 14 14
3 12 13 11 10 11 14 27 27 22 10 6 12 18 24 22 20 19 19 19 20 19 19 18 16 16 16 15 15 14 15 16 18 18 16 15 18 18 17 17 16 17 16 13
4 10 15 14 19 24 26 27 28 27 20 13 16 15 21 21 22 21 23 22 20 19 19 18 17 15 15 16 16 16 15 16 16 18 17 18 13 18 17 18 17 16 16 17
1 10 9 10 11 23 22 20 23 23 21 16 14 12 20 19 18 19 21 21 20 19 18 18 17 17 16 17 15 16 16 16 16 18 18 18 17 14 16 16 16 16 17 17
3 4 4 3 8 6 10 19 11 14 12 11 11 13 19 21 20 17 19 20 18 19 18 18 17 17 15 15 14 15 16 16 16 15 16 17 15 14 14 15 16 16 16 15
4 2 4 3 5 7 8 10 11 9 14 16 14 16 17 18 18 11 17 19 19 19 19 18 16 16 16 15 14 14 14 13 14 13 14 12 13 13 12 11 14 14 13 15
5 2 3 3 10 3 14 11 10 7 9 14 14 14 12 15 11 10 17 19 17 17 15 14 16 16 15 14 14 13 12 12 12 11 12 13 11 9 8 12 10 10 10 10
11 10 6 6 6 8 8 13 19 10 6 15 6 10 10 12 11 11 19 16 17 18 15 16 18 15 13 15 15 12 12 12 12 13 12 10 9 9 9 10 9 9 9 12
7 7 9 7 5 4 7 14 13 9 6 15 8 7 5 6 3 10 13 14 11 13 14 15 15 14 15 15 14 13 13 15 14 13 12 11 10 9 6 7 8 7 9 7
6 5 6 7 6 5 8 7 5 2 8 9 11 11 7 4 5 5 9 9 7 12 12 12 16 14 13 15 15 16 18 16 14 12 12 12 11 10 10 6 6 8 6 7
4 3 3 4 2 3 7 6 9 5 6 8 9 12 12 12 11 4 5 6 8 9 9 8 11 14 13 13 15 16 16 16 15 15 14 13 12 13 14 14 13 10 12 10
8 7 5 4 3 5 5 6 6 6 7 9 10 11 13 14 13 12 11 12 10 12 13 12 14 16 16 18 17 16 16 17 16 17 16 13 14 14 12 11 10 12 11 9
3 3 8 8 5 9 9 7 7 6 8 10 11 13 13 14 16 15 13 13 13 11 12 12 12 14 16 15 17 17 16 17 18 16 16 15 12 14 12 11 9 10 11 11
4 5 4 3 4 5 6 6 8 9 8 9 10 12 13 13 14 16 13 13 13 14 15 14 15 16 16 17 17 17 18 18 16 13 13 12 11 10 10 10 8 9 8 13
Wind_Direction
328 309 295 303 300 291 284 272 272 278 268 229 252 224 206 229 208 216 211 221 187 209 195 183 163 158 164 167 163 172 167 166 159 173 156 160 179 187 187 145 152 172 174 171
346 294 343 337 328 314 303 291 285 276 273 277 260 226 239 242 200 205 216 218 189 175 223 181 174 151 164 167 166 165 177 167 174 166 167 175 175 190 200 147 159 170 192 185
359 339 342 338 323 314 304 292 288 289 284 285 240 258 239 242 243 194 206 202 199 190 188 187 168 152 169 171 172 174 182 176 183 152 154 161 162 227 191 166 169 172 183 200
298 1 328 313 307 309 292 297 302 299 286 274 265 232 224 242 263 240 189 214 210 186 175 193 165 173 174 177 172 176 185 180 179 156 169 171 173 192 218 158 165 170 177 197
300 299 301 292 300 298 288 297 294 294 292 277 263 264 224 220 226 253 220 203 201 243 212 177 203 176 179 170 174 176 176 183 172 171 175 177 179 192 203 180 182 176 174 188
333 292 12 348 331 302 318 301 277 265 269 266 270 258 256 230 228 222 226 213 203 207 198 198 179 234 193 169 172 172 176 175 171 179 184 185 192 200 202 194 177 181 190 189
325 27 21 12 335 321 311 297 271 245 238 249 235 250 253 276 31 22 19 124 91 54 50 53 34 64 238 299 166 173 169 179 178 183 188 195 198 201 208 205 204 181 190 194
357 334 17 331 330 297 289 254 269 255 240 229 242 225 215 30 23 45 59 49 56 46 32 20 19 11 357 358 15 174 180 175 184 187 192 196 204 204 199 205 212 208 201 191
319 316 353 19 344 339 339 248 270 278 279 301 257 212 53 16 25 13 20 37 38 37 34 20 5 357 355 352 347 357 212 190 185 196 194 202 204 207 207 208 221 219 217 192
312 291 43 320 339 311 247 318 285 110 198 231 206 124 42 360 16 358 30 34 34 27 14 13 1 354 349 342 331 330 329 252 201 197 202 200 206 213 213 209 214 222 229 229
304 259 26 51 7 332 220 218 224 244 209 319 85 86 11 2 3 359 358 25 23 15 7 352 348 343 337 331 325 320 321 307 283 201 198 203 206 214 213 213 217 220 220 227
351 290 72 66 51 30 30 16 301 329 16 325 34 77 23 8 2 1 5 5 360 359 352 350 337 331 327 328 327 320 320 318 312 268 210 208 210 201 218 221 210 212 220 217
327 350 6 21 349 31 28 23 28 120 26 25 20 62 17 7 357 8 2 359 356 349 344 339 334 326 321 318 318 312 308 307 306 299 256 217 212 212 206 222 218 214 211 216
43 53 73 83 60 32 45 37 36 38 33 58 20 11 4 360 359 6 1 355 345 343 339 334 329 321 319 320 315 310 303 303 303 304 302 244 211 212 213 213 219 215 216 213
94 103 97 108 91 63 43 33 32 38 27 28 12 27 359 353 349 359 2 355 348 341 337 330 326 323 321 319 316 314 308 300 297 288 280 263 225 209 215 216 214 217 216 221
348 158 143 132 114 74 50 49 50 33 19 17 17 14 355 354 350 14 1 355 348 341 337 332 328 328 323 313 316 312 306 299 299 293 290 290 227 213 209 218 217 215 218 217
44 130 223 81 23 74 40 13 32 42 33 3 22 358 349 354 351 15 354 351 345 345 343 341 337 331 320 316 318 311 305 296 287 286 284 281 233 214 217 209 219 219 221 221
71 339 15 53 275 45 345 360 339 358 20 13 9 8 358 346 344 359 355 348 346 344 343 344 339 329 326 324 319 311 304 309 306 302 307 324 325 217 213 213 215 219 222 226
92 58 81 63 65 85 21 348 316 350 20 10 1 360 350 336 329 346 355 347 342 341 338 338 336 328 324 331 328 321 326 329 325 325 322 318 326 329 294 214 213 216 219 232
45 79 77 54 52 33 351 324 317 141 34 356 21 351 330 340 355 346 339 339 335 339 340 340 335 327 334 343 334 341 344 339 339 330 328 322 334 335 330 320 220 218 218 216
9 353 41 72 94 81 341 325 333 51 322 307 13 331 339 9 267 283 313 332 332 330 338 344 338 349 345 341 344 359 355 354 339 344 338 355 351 329 312 310 318 228 223 235
18 328 33 21 56 63 6 338 32 273 291 358 4 354 359 278 262 234 276 298 345 330 351 360 345 353 348 351 357 5 7 346 350 2 6 6 8 14 6 343 328 304 251 224
51 62 74 43 118 241 241 212 236 232 11 6 9 352 6 356 2 211 280 298 346 343 344 19 359 351 6 4 6 4 2 358 1 17 14 17 15 34 31 34 26 28 13 345
92 127 108 192 172 259 84 44 7 29 20 9 10 6 13 2 1 10 8 9 5 3 9 2 8 9 14 10 13 8 2 4 12 23 17 16 25 27 31 47 40 40 23 10
77 140 115 67 91 213 49 38 352 31 23 356 14 12 14 13 10 2 16 13 1 15 11 9 21 9 12 15 11 15 11 10 19 18 19 16 22 29 27 40 37 48 39 33
53 43 51 94 31 55 48 30 9 21 18 359 20 12 13 20 9 5 17 13 7 8 12 14 18 15 12 16 12 6 18 22 18 20 17 12 19 23 27 23 23 49 42 30